Miscellaneous Local Product
Issued by NWS Hastings, NE

Home | Current Version | Previous Version | Text Only | Print | Product List | Glossary On
Versions: 1 2 3 4 5 6 7 8 9 10 11 12 13 14 15 16 17 18 19 20 21 22 23 24 25 26 27 28 29 30 31 32 33 34 35 36 37 38 39 40 41 42 43 44 45 46 47 48 49 50
000
AXUS43 KGID 251602
MISGRI

GID CWA HOURLY WEATHER ROUNDUP
NATIONAL WEATHER SERVICE HASTINGS NE
1100 AM CDT TUE APR 25 2017

NOTE: "FAIR" INDICATES FEW OR NO CLOUDS BELOW 12,000 FEET WITH NO
SIGNIFICANT WEATHER AND/OR OBSTRUCTIONS TO VISIBILITY.

...SOUTH CENTRAL NEBRASKA...

CITY           SKY/WX    TMP DP  RH WIND       PRES   REMARKS
GRAND ISLAND   CLOUDY    41  40  96 N17       29.58R
HASTINGS       CLOUDY    44  40  85 N22       29.55S
KEARNEY        CLOUDY    43  37  81 N20       29.56F
ORD            LGT RAIN  39  35  86 N20G25    29.57F WCI  29
YORK           CLOUDY    45  41  87 N15G22    29.55F
AURORA         CLOUDY    43  41  92 N22G28    29.55F
LEXINGTON      CLOUDY    42  38  88 N14G21    29.55F
HOLDREGE       CLOUDY    43  40  89 N20       29.55S
HEBRON         CLOUDY    54  43  66 N14       29.49R

...NEBRASKA PANHANDLE...

CITY           SKY/WX    TMP DP  RH WIND       PRES   REMARKS
CHADRON        CLOUDY    36  33  89 NE17      29.65R WCI  26
ALLIANCE       CLOUDY    43  39  86 E12       29.57R
SCOTTSBLUFF    SUNNY     54  39  57 NW13      29.54F
SIDNEY         CLOUDY    52  41  66 NW12      29.56S

...WESTERN AND NORTH CENTRAL NEBRASKA...

CITY           SKY/WX    TMP DP  RH WIND       PRES   REMARKS
VALENTINE      MIX PCPN  36  32  85 N15       29.65F WCI  27
AINSWORTH      CLOUDY    35  35 100 N14       29.63F WCI  26
ONEILL         LGT RAIN  37  35  93 N13G21    29.63F WCI  28
BROKEN BOW     CLOUDY    39  32  76 N13       29.57S WCI  31
IMPERIAL       CLOUDY    45  42  89 E5        29.57R
NORTH PLATTE   CLOUDY    41  38  89 NE17      29.58R
MCCOOK         CLOUDY    47  44  90 NE13      29.54F

...EASTERN NEBRASKA...

CITY           SKY/WX    TMP DP  RH WIND       PRES   REMARKS
NORFOLK        LGT RAIN  39  36  89 N18       29.56R WCI  30
SO SIOUX CITY  CLOUDY    44  43  96 N16       29.53R
TEKAMAH        CLOUDY    48  41  76 N15       29.53R
ALBION         MIX PCPN  40  36  87 N15G22    29.58R WCI  31
OMAHA EPPLEY   CLOUDY    51  42  71 N16       29.49F
OFFUTT AFB     CLOUDY    52  43  71 N10       29.48F
MILLARD        CLOUDY    52  44  75 N6G16     29.49F
LINCOLN        CLOUDY    51  42  71 N16       29.51S
NEBRASKA CITY  CLOUDY    59  44  56 N13       29.45S
BEATRICE       PTSUNNY   58  48  67 N13       29.46S
FALLS CITY     MOSUNNY   68  52  56 S9        29.42F

...NORTHERN KANSAS...

CITY           SKY/WX    TMP DP  RH WIND       PRES   REMARKS
GOODLAND       CLOUDY    53  43  68 NE13      29.56R
HILL CITY      CLOUDY    54  44  69 N21G29    29.50F
NORTON         CLOUDY    50  41  71 N16       29.52S
PHILLIPSBURG   CLOUDY    52  43  71 N18G26    29.52S
SMITH CENTER   CLOUDY    48  43  81 N22G28    29.50F
HAYS           CLOUDY    52  44  74 N21G26    29.48R
RUSSELL        CLOUDY    53  44  71 N23       29.46R
CONCORDIA      CLOUDY    56  49  77 N14       29.45R
SALINA         CLOUDY    66  53  63 NW10      29.42R
TOPEKA         MOSUNNY   69  54  58 S12       29.40F



USA.gov is the U.S. government's official web portal to all federal, state and local government web resources and services.